Location: Unspecified
(0.0000°N, 0.0000°E)
Time: 13:27:20
(UTC+00:00)

Vanguard 2 Rocket - Pass Details

Date: 13 December 2017
Orbit: 554 x 3327 km, 32.9° (Epoch: 18 July)

Event Time Altitude Azimuth Distance (km) Brightness Sun altitude
Rises 18:25:30 0° 279° (W) 4,304 11.5 -7.1°
Reaches altitude 10° 18:28:46 10° 293° (WNW) 3,708 10.7 -7.9°
Maximum altitude 18:36:35 24° 343° (NNW) 3,525 9.8 -9.7°
Drops below altitude 10° 18:48:01 10° 31° (NNE) 5,535 10.4 -12.3°
Enters shadow 18:50:51 - 36° (NE) 6,143 10.6 -12.9°
